OneWeb SL0205

operational
NORAD ID: 48226 Int'l Des: 2021-031 Owner: ONEWEBN Country: UK Constellation: oneweb
LEOCIRCULARPOLARONEWEB_TYPE

About OneWeb SL0205

Description loading...

Live Position

Loading 3D Globe...

Upcoming Passes

Altitude History

Altitude vs Time

uPlot chart will show altitude changes over time

Two-Line Element Set

1 48226U 21031S 25303.10980771 -.00000145 00000-0 -42520-3 0 9993
2 48226 87.9014 335.5299 0001926 89.6738 270.4613 13.14504108218043
Epoch: Oct 30, 2025 • Age: 25 hours

Current Status

Altitude 1225.6 km
Velocity 7.24 km/s
Sub-Earth Point -48.41°S, 126.23°W
Launch Date Apr 25, 2021
Age 4.5 years
Type internet

Technical Details

Classification Payload
Mass 148.00 kg
Dry Mass 140.00 kg
Total Mass 148.00 kg
Length 1.30 m
Diameter 1.00 m
Span 5.00 m
Shape Trapezoid+2 pan
Manufacturer ONEWUS
Bus Type ARROW
Phase Status In Orbit
Owner/State ONEWEBN/UK

Large Constellations

Loading constellations...